TimeCDT,TemperatureF,Dew PointF,Humidity,Sea Level PressureIn,VisibilityMPH,Wind Direction,Wind SpeedMPH,Gust SpeedMPH,PrecipitationIn,Events,Conditions,WindDirDegrees,DateUTC
12:53 AM,42.1,30.0,62,30.09,10.0,WSW,5.8,-,N/A,,Clear,240,2012-10-05 05:53:00
1:53 AM,39.9,28.9,65,30.11,10.0,WSW,4.6,-,N/A,,Clear,240,2012-10-05 06:53:00
3:53 AM,37.9,28.9,70,30.10,10.0,WSW,4.6,-,N/A,,Clear,240,2012-10-05 08:53:00
4:53 AM,36.0,28.0,73,30.10,10.0,SW,5.8,-,N/A,,Clear,220,2012-10-05 09:53:00
5:53 AM,35.1,28.0,76,30.10,10.0,SW,5.8,-,N/A,,Clear,230,2012-10-05 10:53:00
6:53 AM,32.0,27.0,82,30.10,10.0,SSW,4.6,-,N/A,,Clear,210,2012-10-05 11:53:00
7:53 AM,36.0,28.0,73,30.10,10.0,SW,5.8,-,N/A,,Clear,230,2012-10-05 12:53:00
8:53 AM,42.1,30.0,62,30.10,10.0,WSW,11.5,17.3,N/A,,Clear,250,2012-10-05 13:53:00
9:53 AM,46.0,28.9,51,30.08,10.0,WNW,16.1,24.2,N/A,,Clear,290,2012-10-05 14:53:00
10:53 AM,46.9,28.0,48,30.07,10.0,West,16.1,23.0,N/A,,Clear,270,2012-10-05 15:53:00
12:53 PM,50.0,27.0,41,30.04,9.0,West,13.8,21.9,N/A,,Clear,260,2012-10-05 17:53:00
1:53 PM,50.0,27.0,41,30.02,10.0,West,15.0,23.0,N/A,,Clear,260,2012-10-05 18:53:00
2:53 PM,50.0,25.0,38,30.01,10.0,West,11.5,18.4,N/A,,Clear,260,2012-10-05 19:53:00
3:53 PM,48.0,23.0,37,30.03,10.0,WSW,12.7,21.9,N/A,,Clear,250,2012-10-05 20:53:00
4:32 PM,48.2,24.8,40,30.00,8.0,WSW,15.0,19.6,N/A,,Partly Cloudy,240,2012-10-05 21:32:00
4:53 PM,48.0,24.1,39,30.01,10.0,WSW,12.7,-,N/A,,Clear,250,2012-10-05 21:53:00
5:53 PM,46.9,23.0,39,30.01,10.0,WSW,9.2,18.4,N/A,,Clear,240,2012-10-05 22:53:00
6:53 PM,46.0,23.0,40,30.03,10.0,WSW,10.4,-,N/A,,Clear,250,2012-10-05 23:53:00
7:53 PM,45.0,24.1,44,30.02,10.0,WSW,9.2,-,N/A,,Overcast,240,2012-10-06 00:53:00
8:53 PM,46.0,25.0,44,30.01,10.0,WNW,15.0,21.9,N/A,,Overcast,300,2012-10-06 01:53:00
9:53 PM,46.0,24.1,42,30.02,10.0,WNW,16.1,-,N/A,,Overcast,290,2012-10-06 02:53:00
10:53 PM,42.1,24.1,49,30.04,10.0,NW,13.8,19.6,N/A,,Overcast,310,2012-10-06 03:53:00
11:53 PM,41.0,21.9,47,30.04,10.0,WNW,15.0,25.3,N/A,,Mostly Cloudy,290,2012-10-06 04:53:00